DW1196 Weather Reports


time (UTC)temp
F
wind
direction
speed
knots
gust
knots
rain 1hr
in
rain 24hr
in
rain mn
in
humidity
%
barometer
mb
20260503190104 60 255 0.0 0.9 0.00 0.00 0.00 94 1016.7
20260503185604 60 255 0.9 1.7 0.00 0.00 0.00 94 1016.6
20260503185104 60 255 0.9 2.6 0.00 0.00 0.00 94 1016.6
20260503184604 60 255 1.7 2.6 0.00 0.00 0.00 94 1016.7
20260503184104 60 255 0.9 1.7 0.00 0.00 0.00 94 1016.7
20260503183604 60 255 0.0 0.9 0.00 0.00 0.00 94 1016.7
20260503183104 60 255 0.0 0.9 0.00 0.00 0.00 94 1016.6
20260503182604 60 255 0.0 0.9 0.00 0.00 0.00 94 1016.6
20260503182104 60 255 0.0 0.0 0.00 0.00 0.00 94 1016.6
20260503181604 60 255 0.9 1.7 0.00 0.00 0.00 94 1016.7
20260503181104 60 255 0.9 1.7 0.00 0.00 0.00 94 1016.8
20260503180604 60 255 0.0 0.9 0.00 0.00 0.00 94 1016.6
20260503180104 60 255 0.0 0.9 0.00 0.00 0.00 94 1016.6
20260503175604 60 255 0.0 0.9 0.00 0.00 0.00 94 1016.6
20260503174104 60 255 0.0 0.9 0.00 0.00 0.00 94 1016.6
20260503173604 60 255 0.0 0.9 0.00 0.00 0.00 94 1016.6
20260503173104 60 255 0.0 0.0 0.00 0.00 0.00 94 1016.7
20260503172604 59 255 0.0 0.9 0.00 0.00 0.00 94 1016.7
20260503172104 59 255 0.9 1.7 0.00 0.00 0.00 94 1016.7
20260503171604 59 255 0.9 1.7 0.00 0.00 0.00 94 1016.8
20260503171104 59 255 0.0 0.9 0.00 0.00 0.00 94 1016.8
20260503170604 59 255 0.9 1.7 0.00 0.00 0.00 93 1016.8
20260503170104 60 255 0.0 1.7 0.00 0.00 0.00 93 1016.9
20260503160105 60 88 0.9 1.7 0.00 0.00 0.00 93 1017.7
20260503140104 62 33 0.0 0.0 0.00 0.00 0.00 92 1018.5
20260503131104 63 33 0.0 0.0 0.00 0.00 0.00 91 1019.0
20260503130604 63 33 0.0 0.0 0.00 0.00 0.00 91 1019.0
20260503130104 63 33 0.0 0.0 0.00 0.00 0.00 91 1019.0
20260503120105 65 33 0.0 1.7 0.00 0.00 0.00 89 1019.6
20260503110604 67 33 0.0 0.0 0.00 0.00 0.00 86 1019.4
20260503110104 67 33 0.0 0.0 0.00 0.00 0.00 85 1019.4
20260503100104 69 40 2.6 2.6 0.00 0.00 0.00 83 1019.0
20260503090104 70 60 2.6 4.3 0.00 0.00 0.00 80 1019.1
20260503081604 71 62 2.6 6.1 0.00 0.00 0.00 77 1019.1
20260503081104 71 60 2.6 5.2 0.00 0.00 0.00 78 1018.9
20260503080604 71 75 1.7 6.1 0.00 0.00 0.00 77 1018.9
20260503080104 71 71 2.6 6.1 0.00 0.00 0.00 77 1018.9
20260503072604 72 52 5.2 7.8 0.00 0.00 0.00 74 1018.8
20260503072105 73 52 5.2 7.8 0.00 0.00 0.00 74 1018.7
20260503071104 73 46 6.1 10.4 0.00 0.00 0.00 73 1018.6
20260503070604 73 47 7.0 13.0 0.00 0.00 0.00 73 1018.6
20260503070104 73 53 5.2 10.4 0.00 0.00 0.00 72 1018.6
20260503060104 76 48 5.2 11.3 0.00 0.00 0.00 68 1018.6
20260503054604 77 79 8.7 11.3 0.00 0.00 0.00 66 1018.6
20260503053604 77 67 6.1 13.9 0.00 0.00 0.00 61 1018.6
20260503053104 78 104 7.0 10.4 0.00 0.00 0.00 63 1018.7
20260503052604 78 84 5.2 10.4 0.00 0.00 0.00 61 1018.8
20260503052104 78 80 5.2 11.3 0.00 0.00 0.00 58 1018.9
20260503051605 78 74 5.2 8.7 0.00 0.00 0.00 57 1018.9
20260503051105 78 57 6.1 10.4 0.00 0.00 0.00 57 1019.0
20260503050605 78 49 5.2 10.4 0.00 0.00 0.00 56 1018.9
20260503050104 78 67 6.1 10.4 0.00 0.00 0.00 57 1019.0
20260503045605 78 29 6.1 12.2 0.00 0.00 0.00 56 1019.0
20260503045104 78 82 4.3 10.4 0.00 0.00 0.00 56 1019.1
20260503044604 78 55 6.1 10.4 0.00 0.00 0.00 56 1019.0
20260503043105 77 30 5.2 7.8 0.00 0.00 0.00 56 1019.2
20260503042604 77 30 6.1 10.4 0.00 0.00 0.00 56 1019.1
20260503042104 77 35 7.0 13.0 0.00 0.00 0.00 56 1019.3
20260503041104 76 31 6.1 10.4 0.00 0.00 0.00 56 1019.3
20260503040104 77 50 7.8 10.4 0.00 0.00 0.00 55 1019.4
20260503035603 77 47 4.3 7.8 0.00 0.00 0.00 55 1019.4
20260503035104 77 52 4.3 7.8 0.00 0.00 0.00 58 1019.5
20260503034104 77 4 3.5 8.7 0.00 0.00 0.00 59 1019.6
20260503033104 77 22 4.3 10.4 0.00 0.00 0.00 60 1019.6
20260503032604 77 48 5.2 10.4 0.00 0.00 0.00 58 1019.7
20260503032104 77 17 3.5 7.8 0.00 0.00 0.00 59 1019.8
20260503031104 76 73 3.5 7.0 0.00 0.00 0.00 59 1019.9
20260503030103 77 18 4.3 10.4 0.00 0.00 0.00 58 1020.1
20260503025604 78 357 5.2 7.8 0.00 0.00 0.00 58 1020.2
20260503025103 77 21 1.7 7.8 0.00 0.00 0.00 59 1020.5
20260503024603 77 355 7.0 10.4 0.00 0.00 0.00 58 1020.6
20260503024104 77 13 5.2 10.4 0.00 0.00 0.00 59 1020.6
20260503023104 77 357 2.6 7.0 0.00 0.00 0.00 60 1020.8
20260503022604 76 13 5.2 10.4 0.00 0.00 0.00 62 1020.7
20260503022103 76 16 4.3 7.0 0.00 0.00 0.00 62 1020.8
20260503021604 76 71 3.5 7.8 0.00 0.00 0.00 62 1021.1
20260503021103 76 352 3.5 6.1 0.00 0.00 0.00 62 1021.1
20260503020604 76 29 1.7 6.1 0.00 0.00 0.00 61 1021.2
20260503020104 76 314 1.7 6.1 0.00 0.00 0.00 63 1021.3
20260503015604 75 11 1.7 6.1 0.00 0.00 0.00 64 1021.6
20260503015104 75 331 2.6 6.1 0.00 0.00 0.00 64 1021.6
20260503014605 75 347 1.7 4.3 0.00 0.00 0.00 65 1021.8
20260503014104 75 310 2.6 7.8 0.00 0.00 0.00 64 1021.8
20260503013604 74 19 2.6 7.8 0.00 0.00 0.00 66 1021.9
20260503013104 73 0 1.7 7.0 0.00 0.00 0.00 66 1022.1
20260503012604 73 44 0.9 4.3 0.00 0.00 0.00 65 1022.3
20260503012104 74 3 4.3 6.1 0.00 0.00 0.00 66 1022.3
20260503011604 73 312 2.6 7.0 0.00 0.00 0.00 66 1022.4
20260503011104 72 27 2.6 7.8 0.00 0.00 0.00 69 1022.5
20260503010604 73 0 4.3 7.0 0.00 0.00 0.00 68 1022.4
20260503005604 74 16 4.3 7.8 0.00 0.00 0.00 66 1022.6
20260503004604 72 275 1.7 6.1 0.00 0.00 0.00 69 1022.8
20260503003604 72 334 2.6 7.8 0.00 0.00 0.00 70 1023.0
20260503002104 71 13 0.9 2.6 0.00 0.00 0.00 73 1023.2
20260503001604 71 22 3.5 6.1 0.00 0.00 0.00 73 1023.2
20260503001104 71 24 2.6 5.2 0.00 0.00 0.00 74 1023.2
20260503000604 70 18 1.7 7.0 0.00 0.00 0.00 75 1023.1
20260503000104 70 14 2.6 5.2 0.00 0.00 0.00 76 1023.2
20260502234603 69 22 3.5 5.2 0.00 0.00 0.00 78 1023.1
20260502233604 69 39 4.3 5.2 0.00 0.00 0.00 79 1023.2
20260502233103 68 32 3.5 6.1 0.00 0.00 0.00 81 1023.3
20260502232604 68 29 4.3 6.1 0.00 0.00 0.00 80 1023.4
20260502232104 68 25 4.3 6.1 0.00 0.00 0.00 81 1023.5
20260502231104 67 35 1.7 2.6 0.00 0.00 0.00 82 1023.5
20260502230604 67 254 1.7 2.6 0.00 0.00 0.00 83 1023.6
20260502225105 64 253 0.0 0.9 0.00 0.00 0.00 87 1023.7
20260502224605 64 253 0.0 0.9 0.00 0.00 0.00 87 1023.7
20260502224104 63 253 0.0 1.7 0.00 0.00 0.00 89 1023.7
20260502223604 63 253 1.7 2.6 0.00 0.00 0.00 90 1023.7
20260502223104 63 253 1.7 2.6 0.00 0.00 0.00 90 1023.8
20260502222604 62 253 1.7 2.6 0.00 0.00 0.00 91 1023.7
20260502222104 62 253 0.9 1.7 0.00 0.00 0.00 93 1023.6
20260502221604 61 253 0.9 2.6 0.00 0.00 0.00 93 1023.6
20260502221104 60 253 1.7 2.6 0.00 0.00 0.00 94 1023.6
20260502220604 60 253 1.7 2.6 0.00 0.00 0.00 94 1023.7
20260502220104 59 253 1.7 2.6 0.00 0.00 0.00 94 1023.5
20260502215104 59 49 0.9 0.9 0.00 0.00 0.00 95 1023.2
20260502214604 58 49 0.0 1.7 0.00 0.00 0.00 94 1023.3
20260502214104 58 49 0.9 0.9 0.00 0.00 0.00 94 1023.3
20260502212604 58 237 0.0 0.9 0.00 0.00 0.00 95 1023.0
20260502212105 58 237 0.0 0.9 0.00 0.00 0.00 95 1023.0
20260502211604 57 237 0.0 0.9 0.00 0.00 0.00 95 1022.9
20260502211104 57 237 0.0 1.7 0.00 0.00 0.00 94 1023.0
20260502210104 57 237 1.7 2.6 0.00 0.00 0.00 94 1023.1
20260502205604 57 237 1.7 2.6 0.00 0.00 0.00 94 1023.0
20260502205104 57 237 1.7 2.6 0.00 0.00 0.00 94 1023.0
20260502204604 57 237 0.9 1.7 0.00 0.00 0.00 94 1023.0
20260502204104 57 237 0.9 1.7 0.00 0.00 0.00 94 1022.9
20260502203604 57 237 0.9 1.7 0.00 0.00 0.00 94 1022.9
20260502203104 57 237 0.0 0.9 0.00 0.00 0.00 94 1022.9
20260502202604 57 237 0.9 0.9 0.00 0.00 0.00 94 1022.8
20260502202105 58 237 0.0 0.9 0.00 0.00 0.00 94 1022.8
20260502201604 58 237 0.9 0.9 0.00 0.00 0.00 94 1023.0
20260502201104 58 237 0.0 0.9 0.00 0.00 0.00 94 1023.0
20260502200604 58 237 0.0 0.9 0.00 0.00 0.00 94 1023.1
20260502195604 58 237 0.0 0.0 0.00 0.00 0.00 94 1023.1
20260502194104 58 237 0.0 0.9 0.00 0.00 0.00 94 1022.9
20260502193604 58 237 0.0 0.9 0.00 0.00 0.00 94 1022.9
20260502193104 58 237 0.0 1.7 0.00 0.00 0.00 94 1022.9
20260502192604 58 237 0.9 1.7 0.00 0.00 0.00 94 1022.8
20260502192104 58 237 0.0 0.9 0.00 0.00 0.00 94 1022.8
20260502191604 58 237 0.9 1.7 0.00 0.00 0.00 94 1022.6
20260502191104 58 237 0.9 1.7 0.00 0.00 0.00 94 1022.7